Location: Elstree
(51.6403°N, 0.2969°W)
Time: 20:28:25
(UTC+00:00)

Terra - Pass Details

Date: 20 June 2021
Orbit: 701 x 703 km, 98.2° (Epoch: 04 August)

Event Time Altitude Azimuth Distance (km) Brightness Sun altitude
Exits shadow 22:19:56 11° 190° (S) 2,115 3.8 -11.6°
Maximum altitude 22:24:20 44° 261° (W) 973 2.7 -11.9°
Drops below altitude 10° 22:28:55 10° 334° (NNW) 2,184 5.9 -12.1°
Sets 22:31:18 0° 341° (NNW) 3,108 7.3 -12.3°
